User: anonymous   Login
Location: Dürabuch
(48.2640°N, 11.2185°E)
Time: 11:15:17
(UTC+00:00)
Language:

CZ-2D R/B - Orbit

View from above orbital plane
View from above orbital plane
View from above satellite
View from above satellite

Ground track
Ground track

The orbit data is extracted from the following two-line orbital elements,

1 37932U 11068C   24205.63550530  .00000420  00000-0  20663-3 0  9996
2 37932  98.7974 147.3576 0037934  98.1216  74.8620 14.22543663657917
Epoch (UTC): 23 July 2024 15:15:07
Eccentricity: 0.0037934
inclination: 98.7974°
perigee height: 789 km
apogee height: 844 km
right ascension of ascending node: 147.3576°
argument of perigee: 98.1216°
revolutions per day: 14.22543663
mean anomaly at epoch: 74.8620°
orbit number at epoch: 65791

The dashed part of the orbit path shows where the satellite is in the earth's shadow,  

DLR